EW5024 Weather Reports


Display with metric or nautical units.
time (UTC)temp
F
wind
direction
speed
MPH
gust
MPH
rain 1hr
in
rain 24hr
in
rain mn
in
humidity
%
barometer
mb
20201029103322 54 34 2.0 8.0 0.00 0.00 0.00 72 1021.3
20201029101646 54 19 2.0 10.0 0.00 0.00 0.00 73 1021.3
20201029100229 53 48 4.0 9.0 0.00 0.00 0.00 73 1021.6
20201029094655 53 349 4.0 9.0 0.00 0.00 0.00 76 1021.8
20201029093159 52 24 3.0 8.0 0.00 0.00 0.00 79 1021.6
20201029091616 51 260 1.0 4.0 0.00 0.00 0.00 82 1021.8
20201029090221 50 301 2.0 5.0 0.00 0.00 0.00 84 1021.7
20201029084706 49 310 3.0 9.0 0.00 0.00 0.00 87 1021.7
20201029083141 48 319 1.0 3.0 0.00 0.00 0.00 91 1021.7
20201029081601 47 310 1.0 3.0 0.00 0.00 0.00 92 1021.7
20201029080112 46 290 1.0 4.0 0.00 0.00 0.00 93 1021.6
20201029074542 45 5 1.0 2.0 0.00 0.00 0.00 93 1021.9
20201029073129 45 5 0.0 1.0 0.00 0.00 0.00 93 1021.7
20201029071557 44 273 0.0 0.0 0.00 0.00 0.00 94 1021.5
20201029070035 44 273 0.0 1.0 0.00 0.00 0.00 94 1021.4
20201029064542 43 273 1.0 3.0 0.00 0.00 0.00 94 1021.2
20201029063034 43 260 0.0 2.0 0.00 0.00 0.00 94 1021.2
20201029061541 43 261 1.0 4.0 0.00 0.00 0.00 93 1020.9
20201029060048 43 72 0.0 1.0 0.00 0.00 0.00 93 1020.8
20201029054531 43 49 1.0 3.0 0.00 0.00 0.00 93 1020.9
20201029053031 43 302 0.0 3.0 0.00 0.00 0.00 92 1020.5
20201029051528 44 122 0.0 2.0 0.00 0.00 0.00 93 1020.4
20201029050024 44 122 1.0 4.0 0.00 0.00 0.00 94 1020.0
20201029044526 43 156 0.0 0.0 0.00 0.00 0.00 93 1020.3
20201029043048 43 155 0.0 2.0 0.00 0.00 0.00 94 1020.4
20201029041522 43 266 2.0 4.0 0.00 0.00 0.00 93 1020.5
20201029040026 43 254 2.0 4.0 0.00 0.00 0.00 93 1020.4
20201029034521 43 260 0.0 4.0 0.00 0.00 0.00 93 1020.2
20201029033059 43 102 0.0 2.0 0.00 0.00 0.00 93 1020.4
20201029031532 43 101 0.0 3.0 0.00 0.00 0.00 93 1020.4
20201029030024 43 102 0.0 2.0 0.00 0.00 0.00 92 1020.3
20201029024520 43 100 0.0 2.0 0.00 0.00 0.00 93 1020.5
20201029023020 43 145 0.0 0.0 0.00 0.00 0.00 92 1020.4
20201029021518 44 137 0.0 2.0 0.00 0.00 0.00 92 1020.4
20201029020025 44 229 1.0 3.0 0.00 0.00 0.00 91 1020.4
20201029014518 45 106 0.0 3.0 0.00 0.00 0.00 93 1020.5
20201029013020 44 104 2.0 3.0 0.00 0.00 0.00 92 1020.3
20201029011722 44 260 0.0 1.0 0.00 0.00 0.00 92 1020.4
20201029010216 44 260 0.0 2.0 0.00 0.00 0.00 92 1020.4
20201029004656 44 260 1.0 6.0 0.00 0.00 0.00 91 1020.7
20201029003310 44 5 1.0 3.0 0.00 0.00 0.00 92 1020.8
20201029001636 44 257 1.0 4.0 0.00 0.00 0.00 91 1020.5
20201029000200 45 25 0.0 0.0 0.00 0.00 0.00 91 1021.0
20201028234700 45 25 0.0 0.0 0.00 0.00 0.00 91 1020.8
20201028233145 45 25 0.0 0.0 0.00 0.00 0.00 92 1020.9
20201028231813 45 25 1.0 3.0 0.00 0.00 0.00 92 1020.8
20201028230147 45 24 0.0 0.0 0.00 0.00 0.00 92 1020.9
20201028224659 45 24 1.0 3.0 0.00 0.00 0.00 91 1020.9
20201028223243 45 24 0.0 2.0 0.00 0.00 0.00 91 1020.7
20201028221737 45 24 1.0 3.0 0.00 0.00 0.00 91 1020.6
20201028220152 45 26 0.0 3.0 0.00 0.00 0.00 91 1020.8
20201028214655 45 275 2.0 6.0 0.00 0.00 0.00 90 1020.7
20201028213135 45 21 1.0 3.0 0.00 0.00 0.00 91 1020.9
20201028211609 45 13 1.0 2.0 0.00 0.00 0.00 90 1020.7
20201028210144 45 13 0.0 1.0 0.00 0.00 0.00 91 1020.7
20201028204627 45 13 0.0 1.0 0.00 0.00 0.00 90 1020.7
20201028203112 45 13 0.0 1.0 0.00 0.00 0.00 90 1020.6
20201028201640 46 13 0.0 0.0 0.00 0.00 0.00 90 1020.5
20201028200217 46 13 0.0 2.0 0.00 0.00 0.00 89 1020.6
20201028194549 46 13 0.0 1.0 0.00 0.00 0.00 89 1020.5
20201028193147 46 13 0.0 2.0 0.00 0.00 0.00 88 1020.4
20201028191630 47 18 0.0 3.0 0.00 0.00 0.00 87 1020.4
20201028190139 47 279 1.0 2.0 0.00 0.00 0.00 85 1020.3
20201028184644 48 279 0.0 2.0 0.00 0.00 0.00 85 1020.1
20201028183053 48 279 0.0 2.0 0.00 0.00 0.00 85 1019.9
20201028181709 48 279 0.0 2.0 0.00 0.00 0.00 84 1019.7
20201028180207 49 279 0.0 2.0 0.00 0.00 0.00 84 1019.7
20201028174621 49 279 0.0 2.0 0.00 0.00 0.00 82 1019.7
20201028173148 50 278 0.0 2.0 0.00 0.00 0.00 81 1019.5
20201028171611 50 279 0.0 2.0 0.00 0.00 0.00 79 1019.2
20201028170108 51 279 1.0 2.0 0.00 0.00 0.00 76 1018.9
20201028164537 52 279 0.0 2.0 0.00 0.00 0.00 74 1018.6
20201028163155 53 279 0.0 1.0 0.00 0.00 0.00 73 1018.5
20201028161608 54 279 0.0 1.0 0.00 0.00 0.00 70 1018.2
20201028160106 54 279 0.0 1.0 0.00 0.00 0.00 67 1018.3
20201028154655 55 279 0.0 2.0 0.00 0.00 0.00 67 1018.3
20201028151607 55 279 0.0 3.0 0.00 0.00 0.00 64 1018.4
20201028150048 56 279 1.0 4.0 0.00 0.00 0.00 62 1018.2
20201028144608 58 286 2.0 4.0 0.00 0.00 0.00 59 1018.4
20201028143042 58 316 1.0 6.0 0.00 0.00 0.00 59 1018.5
20201028141627 59 288 2.0 6.0 0.00 0.00 0.00 59 1018.4
20201028140112 59 271 1.0 6.0 0.00 0.00 0.00 57 1018.3
20201028134550 59 340 2.0 6.0 0.00 0.00 0.00 56 1018.2
20201028133043 58 31 3.0 9.0 0.00 0.00 0.00 56 1018.3
20201028131559 58 26 2.0 6.0 0.00 0.00 0.00 56 1018.3
20201028130102 58 331 2.0 9.0 0.00 0.00 0.00 56 1018.6
20201028124546 58 336 3.0 6.0 0.00 0.00 0.00 56 1018.9
20201028123045 57 15 2.0 5.0 0.00 0.00 0.00 57 1019.1
20201028121544 56 10 0.0 9.0 0.00 0.00 0.00 60 1019.2
20201028120044 56 5 1.0 6.0 0.00 0.00 0.00 60 1019.5
20201028114523 55 28 2.0 8.0 0.00 0.01 0.00 63 1019.7
20201028113022 55 283 1.0 5.0 0.00 0.01 0.00 65 1020.1
20201028111538 54 23 1.0 8.0 0.00 0.01 0.00 67 1020.1
20201028110040 53 348 4.0 9.0 0.00 0.01 0.00 67 1020.3
20201028104627 53 344 0.0 4.0 0.00 0.01 0.00 71 1020.5